sat.trackr.live / text

‹ back to catalog

STARLINK-34388

NORAD 64294 · 2025-123D

PAYLOAD ACTIVE UNKNOWN

§ Identity

Operator
Country
US
Launch date
2025-06-08
Launch site
AFWTR
Launch vehicle
Mass (kg)
RCS (m²)

Purposes: comms

External: N2YO · Heavens-Above · Gunter

§ Orbital elements

Epoch: 2026-09-20T20:23:20.485824Z

Period
94.14 min
Inclination
70.0001°
Eccentricity
0.0003831
Mean motion
15.29606475 rev/d
Perigee alt
474.4 km
Apogee alt
479.6 km
Semi-major
6,855.1 km
B*
4.6040e-4
RAAN
59.9150°
Arg perigee
281.6676°
Mean anomaly
78.4069°
Rev number
7,213

§ Raw data

STARLINK-343881 64294U 25123D   26263.84954266  .00013142  00000+0  46040-3 0  99982 64294  70.0001  59.9150 0003831 281.6676  78.4069 15.29606475 72137

JSON: /api/v1/satellites/64294 · /tle

For live sub-satellite position, see the globe view (requires WebGL).

§ Visibility from observer

Set your observer location to see the next 7 days of passes ≥ 10°. The values pass through the URL so the page stays shareable.

No JS? Fill the form by hand. The geolocation button needs JavaScript.